Location: Sungai Linau
(2.7000°N, 114.0500°E)
Time: 01:17:50
(UTC+00:00)

Daily predictions for brighter satellites

Satellite Brightness Start Highest point End
(mag) Time Altitude Azimuth Time Altitude Azimuth Time Altitude Azimuth
CZ-4B R/B 3.8 10:28:52 10° SE 10:33:49 34° ENE 10:38:39 10° NNE
Cosmos 1898 Rocket 3.4 10:28:47 10° N 10:33:57 77° ENE 10:39:06 10° SSE
PAYLOAD B 4.4 10:28:48 10° SSE 10:34:17 56° ENE 10:39:44 10° N
Cosmos 1867 4.5 10:30:00 10° SW 10:35:13 51° WNW 10:40:28 10° N
Cosmos 2228 Rocket 4.5 10:33:46 10° SE 10:36:57 19° E 10:40:05 10° NE
H-2A R/B 2.2 10:32:12 10° SSE 10:37:28 59° ENE 10:42:35 10° N
deb Chang Zheng 4 4.4 10:34:23 10° SE 10:38:06 29° ENE 10:41:48 10° NNE
Hubble Space Telescope 3.2 10:38:10 10° S 10:39:22 11° SSE 10:40:33 10° SE
NOSS 3-3 (A) 4.2 10:34:26 10° SW 10:39:43 60° WNW 10:45:06 10° NNE
NOSS 3-3 (C) 4.2 10:34:31 10° SSW 10:39:49 61° WNW 10:45:13 10° NNE
SL-27 R/B 4.1 10:38:38 10° SE 10:40:51 16° E 10:43:05 10° ENE
Molniya-1 3.2 10:37:46 10° SSW 10:41:32 72° ESE 10:45:03 10° NNE
Meteor 2-15 Rocket 4.5 10:36:56 10° S 10:43:06 82° E 10:49:13 10° N
IRAS Rocket 4.4 10:38:37 10° NNE 10:44:02 59° ESE 10:49:32 10° S
USA 229 DEB 4.3 10:37:27 10° N 10:44:50 45° ENE 10:52:15 10° SE
USA 229 4.3 10:37:34 10° N 10:44:55 44° ENE 10:52:19 10° SE
USA 32 4.2 10:41:52 10° SSE 10:46:58 54° E 10:52:02 10° NNE
Cosmos 1515 Rocket 3.9 10:42:47 10° S 10:47:14 73° W 10:51:40 10° N
Sich 1 4.1 10:44:23 10° NNW 10:48:34 50° W 10:52:49 10° S
Meteor 2-16 Rocket 4.5 10:42:33 10° N 10:48:37 64° E 10:54:41 10° SSE
ARIANE 3 DEB 1.7 10:47:10 10° WSW 10:49:18 61° S 10:51:34 13° E
Intelsat 5-1 Rocket 3.2 10:49:34 10° SSW 10:51:12 14° SSE 10:52:36 10° SE
CZ-4B R/B 3.2 10:50:52 12° E 10:51:22 12° E 10:52:36 10° SE
Cosmos 773 Rocket 4.5 10:46:39 10° S 10:51:34 41° ESE 10:56:31 10° NNE
Cosmos 2084 3.8 10:48:35 10° N 10:53:00 49° ENE 10:57:32 10° SE
H-2A R/B 2.4 10:49:58 10° NNE 10:54:13 46° ESE 10:58:26 10° S
CZ-2D R/B 4.2 10:52:16 10° S 10:56:02 52° W 10:59:46 10° NNW
Atlas Centaur 2 0.9 10:56:22 10° WNW 10:59:55 85° NE 11:03:42 10° ESE
Cosmos 2360 4.3 10:58:56 10° NNW 11:04:38 86° WSW 11:10:20 10° SSE
Gbstr 26 Del rocket 3.9 10:58:37 10° SSW 11:05:46 83° SE 11:10:37 15° NE
Sakura Rocket 4.0 11:02:03 10° NW 11:07:01 33° NNE 11:09:13 21° ENE
Cosmos 2266 Rocket 4.3 11:02:57 10° NNE 11:09:01 46° E 11:15:05 10° SSE
NOSS 3-1 (A) 4.3 11:00:13 10° NNW 11:09:08 79° ENE 11:18:16 10° SSE
DELTA-4 R/B 3.8 10:55:49 10° W 11:09:38 61° NNW 11:12:15 21° ENE
Cosmos 1937 Rocket 4.3 11:07:35 10° NNW 11:12:44 56° WSW 11:17:51 10° S
YAOGAN 1 3.2 11:09:46 10° SE 11:13:36 31° ENE 11:16:16 17° NNE
Cosmos 1544 3.4 11:15:08 21° NNE 11:17:10 41° E 11:20:37 10° SSE
Cosmos 1707 Rocket 4.4 11:15:34 10° SSE 11:19:18 28° E 11:19:40 28° E
CZ-4 R/B 2.0 11:15:30 10° SE 11:19:20 35° ENE 11:21:04 25° NNE
Meteor 1-11 Rocket 4.2 11:15:28 10° NNE 11:20:51 41° E 11:26:20 10° SSE
Cosmos 372 Rocket 4.1 11:16:19 10° NNW 11:21:33 82° WSW 11:26:47 10° S
Cosmos 1536 4.5 11:24:51 18° ESE 11:24:51 18° ESE 11:26:23 10° SE
Okean O Rocket 2.3 11:26:15 10° S 11:30:35 56° WSW 11:34:56 10° NNW
PSLV R/B 4.0 11:30:57 39° NE 11:32:11 57° ESE 11:36:19 10° S
GPS 2-14 Rocket1 3.7 11:32:38 10° W 11:36:18 42° SSW 11:38:15 23° SE
Meteor 1-19 Rocket 4.3 11:30:28 10° S 11:36:28 78° E 11:41:09 17° N
Spot 2 4.4 11:32:34 10° SSE 11:37:26 63° ENE 11:42:27 10° N
IRIS 4.2 11:34:48 10° SW 11:37:35 80° NW 11:37:49 74° N
Cosmos 1980 Rocket 2.5 11:39:10 10° NNW 11:44:42 67° WSW 11:50:14 10° S
HJ-1C 4.3 11:44:31 10° S 11:46:46 41° S 11:46:46 41° S
ARGOS 4.5 11:42:49 10° S 11:47:53 41° WSW 11:52:57 10° NNW
Cosmos 1655 Rocket 4.4 11:42:34 10° NNW 11:48:49 65° W 11:55:02 10° S
COSMOS 2487 3.9 11:46:18 10° S 11:48:01 28° S 11:48:01 28° S
Cosmos 1356 Rocket 3.4 11:51:06 59° N 11:51:54 86° W 11:56:12 10° S
